Needles, CA

1:43 AM PDT on April 25, 2017 (GMT -0700)
Needles

Weather History for KEED - June, 2012

Change the Weather History Date:

Thursday, June 21, 2012

  Actual Average Record
Temperature  
Mean Temperature 96 °F 92 °F  
Max Temperature 111 °F 106 °F 117 °F (2005)
Min Temperature 82 °F 79 °F 55 °F (1939)
Degree Days  
Heating Degree Days 0    
Cooling Degree Days 30    
Growing Degree Days 46 (Base 50)    
Moisture  
Dew Point 28 °F    
Average Humidity 9    
Maximum Humidity 15    
Minimum Humidity 4    
Precipitation  
Precipitation 0.00 in 0.00 in 0.00 in (2017)
Month to date precipitation 0.02  
Year to date precipitation 2.37  
Sea Level Pressure  
Sea Level Pressure 29.60 in    
Wind  
Wind Speed 7 mph (SSW)    
Max Wind Speed 21 mph    
Max Gust Speed 31 mph    
Visibility 10 miles    
Events      
T = Trace of Precipitation, MM = Missing Value Source: NWS Daily Summary

Daily Weather History Graph

Daily Weather History Graph

Search for Another Location

Airport or City:

Trip Planner

Search our weather history database for the weather conditions in past years. The results will help you decide how hot, cold, wet, or windy it might be!

Date:

Astronomy

Jun. 21, 2012 Rise Set
Actual Time 5:25 AM PDT 7:55 PM PDT
Civil Twilight 4:56 AM PDT 8:24 PM PDT
Nautical Twilight 4:19 AM PDT 9:01 PM PDT
Astronomical Twilight 3:39 AM PDT 9:41 PM PDT
Moon 7:23 AM PDT (6/21) 9:26 PM PDT (6/21)
Length of Visible Light 15h 28m
Length of Day
14h 29m
Waxing Crescent, 5% of the Moon is Illuminated
Jun 21
Waxing Crescent
Jun 26
First Quarter
Jul 3
Full
Jul 10
Last Quarter
Jul 18
New

Hourly Weather History & Observations

Time (PDT) Temp. Dew Point Humidity Pressure Visibility Wind Dir Wind Speed Gust Speed Precip Events Conditions
12:56 AM 93.9 °F 21.0 °F 7% 29.57 in 10.0 mi WSW 5.8 mph - N/A   Clear
2:56 AM 88.0 °F 21.0 °F 9% 29.59 in 10.0 mi Calm Calm - N/A   Clear
3:56 AM 88.0 °F 24.1 °F 10% 29.60 in 10.0 mi Calm Calm - N/A   Clear
4:56 AM 84.9 °F 30.9 °F 14% 29.62 in 10.0 mi Calm Calm - N/A   Clear
5:56 AM 82.9 °F 30.9 °F 15% 29.63 in 10.0 mi Calm Calm - N/A   Clear
6:56 AM 89.1 °F 33.1 °F 14% 29.65 in 10.0 mi NNW 4.6 mph - N/A   Clear
7:56 AM 91.9 °F 34.0 °F 13% 29.66 in 10.0 mi NNE 3.5 mph - N/A   Clear
8:56 AM 96.1 °F 33.1 °F 11% 29.66 in 10.0 mi East 4.6 mph - N/A   Clear
9:56 AM 99.0 °F 30.9 °F 9% 29.66 in 10.0 mi Variable 4.6 mph - N/A   Clear
10:56 AM 105.1 °F 26.1 °F 6% 29.65 in 10.0 mi SSW 15.0 mph 19.6 mph N/A   Clear
11:56 AM 108.0 °F 23.0 °F 5% 29.64 in 10.0 mi SSW 18.4 mph 24.2 mph N/A   Clear
12:56 PM 108.0 °F 17.1 °F 4% 29.63 in 10.0 mi South 10.4 mph 24.2 mph N/A   Clear
1:56 PM 108.0 °F 21.0 °F 5% 29.60 in 10.0 mi South 9.2 mph 18.4 mph N/A   Clear
2:56 PM 109.0 °F 21.9 °F 5% 29.59 in 10.0 mi SW 18.4 mph 25.3 mph N/A   Clear
3:56 PM 109.0 °F 23.0 °F 5% 29.57 in 10.0 mi SSW 17.3 mph 28.8 mph N/A   Clear
4:56 PM 109.0 °F 28.0 °F 6% 29.55 in 10.0 mi South 20.7 mph 31.1 mph N/A   Clear
5:56 PM 107.1 °F 34.0 °F 8% 29.55 in 10.0 mi South 19.6 mph 29.9 mph N/A   Clear
6:56 PM 106.0 °F 37.0 °F 9% 29.54 in 10.0 mi SSW 19.6 mph 24.2 mph N/A   Clear
7:56 PM 102.9 °F 36.0 °F 10% 29.55 in 10.0 mi SSW 16.1 mph - N/A   Clear
9:56 PM 95.0 °F 27.0 °F 9% 29.57 in 10.0 mi WSW 8.1 mph - N/A   Clear
10:56 PM 95.0 °F 27.0 °F 9% 29.57 in 10.0 mi SSW 10.4 mph - N/A   Clear
11:56 PM 93.0 °F 30.9 °F 11% 29.56 in 10.0 mi SSW 9.2 mph - N/A   Clear